Year,Month,Day,Hour,Minute,Value (Times are PST for temperature in C)
2007,07,04,00,01,13.90
2007,07,04,00,02,13.90
2007,07,04,00,03,13.90
2007,07,04,00,04,13.80
2007,07,04,00,05,13.80
2007,07,04,00,06,13.80
2007,07,04,00,07,13.80
2007,07,04,00,08,13.70
2007,07,04,00,09,13.70
2007,07,04,00,10,13.70
2007,07,04,00,11,13.70
2007,07,04,00,12,13.70
2007,07,04,00,13,13.70
2007,07,04,00,14,13.70
2007,07,04,00,15,13.70
2007,07,04,00,16,13.60
2007,07,04,00,17,13.60
2007,07,04,00,18,13.60
2007,07,04,00,19,13.60
2007,07,04,00,20,13.60
2007,07,04,00,21,13.60
2007,07,04,00,22,13.60
2007,07,04,00,23,13.50
2007,07,04,00,24,13.50
2007,07,04,00,25,13.50
2007,07,04,00,26,13.50
2007,07,04,00,27,13.50
2007,07,04,00,28,13.50
2007,07,04,00,29,13.50
2007,07,04,00,30,13.40
2007,07,04,00,31,13.40
2007,07,04,00,32,13.40
2007,07,04,00,33,13.40
2007,07,04,00,34,13.40
2007,07,04,00,35,13.30
2007,07,04,00,36,13.30
2007,07,04,00,37,13.30
2007,07,04,00,38,13.30
2007,07,04,00,39,13.30
2007,07,04,00,40,13.30
2007,07,04,00,41,13.30
2007,07,04,00,42,13.30
2007,07,04,00,43,13.30
2007,07,04,00,44,13.30
2007,07,04,00,45,13.30
2007,07,04,00,46,13.20
2007,07,04,00,47,13.20
2007,07,04,00,48,13.20
2007,07,04,00,49,13.20
2007,07,04,00,50,13.20
2007,07,04,00,51,13.20
2007,07,04,00,52,13.20
2007,07,04,00,53,13.10
2007,07,04,00,54,13.10
2007,07,04,00,55,13.10
2007,07,04,00,56,13.10
2007,07,04,00,57,13.10
2007,07,04,00,58,13.10
2007,07,04,00,59,13.00
2007,07,04,01,00,13.00
2007,07,04,01,01,13.00
2007,07,04,01,02,13.00
2007,07,04,01,03,13.00
2007,07,04,01,04,13.00
2007,07,04,01,05,12.90
2007,07,04,01,06,12.90
2007,07,04,01,07,12.90
2007,07,04,01,08,12.90
2007,07,04,01,09,12.90
2007,07,04,01,10,12.90
2007,07,04,01,11,12.80
2007,07,04,01,12,12.80
2007,07,04,01,13,12.80
2007,07,04,01,14,12.80
2007,07,04,01,15,12.80
2007,07,04,01,16,12.80
2007,07,04,01,17,12.80
2007,07,04,01,18,12.80
2007,07,04,01,19,12.80
2007,07,04,01,20,12.80
2007,07,04,01,21,12.80
2007,07,04,01,22,12.80
2007,07,04,01,23,12.80
2007,07,04,01,24,12.70
2007,07,04,01,25,12.70
2007,07,04,01,26,12.70
2007,07,04,01,27,12.70
2007,07,04,01,28,12.70
2007,07,04,01,29,12.60
2007,07,04,01,30,12.60
2007,07,04,01,31,12.60
2007,07,04,01,32,12.60
2007,07,04,01,33,12.60
2007,07,04,01,34,12.50
2007,07,04,01,35,12.50
2007,07,04,01,36,12.50
2007,07,04,01,37,12.50
2007,07,04,01,38,12.50
2007,07,04,01,39,12.40
2007,07,04,01,40,12.40
2007,07,04,01,41,12.40
2007,07,04,01,42,12.40
2007,07,04,01,43,12.40
2007,07,04,01,44,12.30
2007,07,04,01,45,12.30
2007,07,04,01,46,12.30
2007,07,04,01,47,12.30
2007,07,04,01,48,12.30
2007,07,04,01,49,12.30
2007,07,04,01,50,12.30
2007,07,04,01,51,12.30
2007,07,04,01,52,12.30
2007,07,04,01,53,12.30
2007,07,04,01,54,12.30
2007,07,04,01,55,12.30
2007,07,04,01,56,12.30
2007,07,04,01,57,12.30
2007,07,04,01,58,12.30
2007,07,04,01,59,12.30
2007,07,04,02,00,12.20
2007,07,04,02,01,12.20
2007,07,04,02,02,12.20
2007,07,04,02,03,12.20
2007,07,04,02,04,12.20
2007,07,04,02,05,12.20
2007,07,04,02,06,12.20
2007,07,04,02,07,12.20
2007,07,04,02,08,12.20
2007,07,04,02,09,12.10
2007,07,04,02,10,12.10
2007,07,04,02,11,12.10
2007,07,04,02,12,12.10
2007,07,04,02,13,12.10
2007,07,04,02,14,12.10
2007,07,04,02,15,12.10
2007,07,04,02,16,12.10
2007,07,04,02,17,12.10
2007,07,04,02,18,12.00
2007,07,04,02,19,12.00
2007,07,04,02,20,12.00
2007,07,04,02,21,12.00
2007,07,04,02,22,12.00
2007,07,04,02,23,12.00
2007,07,04,02,24,12.00
2007,07,04,02,25,12.00
2007,07,04,02,26,12.00
2007,07,04,02,27,12.00
2007,07,04,02,28,11.90
2007,07,04,02,29,11.90
2007,07,04,02,30,11.90
2007,07,04,02,31,11.90
2007,07,04,02,32,11.90
2007,07,04,02,33,11.90
2007,07,04,02,34,11.90
2007,07,04,02,35,11.90
2007,07,04,02,36,11.90
2007,07,04,02,37,11.90
2007,07,04,02,38,11.80
2007,07,04,02,39,11.80
2007,07,04,02,40,11.80
2007,07,04,02,41,11.80
2007,07,04,02,42,11.80
2007,07,04,02,43,11.80
2007,07,04,02,44,11.80
2007,07,04,02,45,11.80
2007,07,04,02,46,11.80
2007,07,04,02,47,11.80
2007,07,04,02,48,11.80
2007,07,04,02,49,11.80
2007,07,04,02,50,11.80
2007,07,04,02,51,11.80
2007,07,04,02,52,11.70
2007,07,04,02,53,11.70
2007,07,04,02,54,11.70
2007,07,04,02,55,11.70
2007,07,04,02,56,11.70
2007,07,04,02,57,11.70
2007,07,04,02,58,11.60
2007,07,04,02,59,11.60
2007,07,04,03,00,11.60
2007,07,04,03,01,11.60
2007,07,04,03,02,11.60
2007,07,04,03,03,11.60
2007,07,04,03,04,11.60
2007,07,04,03,05,11.60
2007,07,04,03,06,11.60
2007,07,04,03,08,11.60
2007,07,04,03,09,11.60
2007,07,04,03,10,11.60
2007,07,04,03,11,11.60
2007,07,04,03,12,11.60
2007,07,04,03,13,11.60
2007,07,04,03,14,11.60
2007,07,04,03,15,11.60
2007,07,04,03,16,11.60
2007,07,04,03,17,11.60
2007,07,04,03,18,11.40
2007,07,04,03,19,11.40
2007,07,04,03,20,11.40
2007,07,04,03,21,11.40
2007,07,04,03,22,11.40
2007,07,04,03,23,11.40
2007,07,04,03,24,11.40
2007,07,04,03,25,11.40
2007,07,04,03,26,11.40
2007,07,04,03,27,11.40
2007,07,04,03,28,11.40
2007,07,04,03,29,11.40
2007,07,04,03,30,11.40
2007,07,04,03,31,11.40
2007,07,04,03,32,11.40
2007,07,04,03,33,11.40
2007,07,04,03,34,11.40
2007,07,04,03,35,11.30
2007,07,04,03,36,11.30
2007,07,04,03,37,11.30
2007,07,04,03,38,11.30
2007,07,04,03,39,11.30
2007,07,04,03,40,11.30
2007,07,04,03,41,11.30
2007,07,04,03,42,11.20
2007,07,04,03,43,11.20
2007,07,04,03,44,11.20
2007,07,04,03,45,11.20
2007,07,04,03,46,11.20
2007,07,04,03,47,11.20
2007,07,04,03,48,11.20
2007,07,04,03,49,11.20
2007,07,04,03,50,11.20
2007,07,04,03,51,11.10
2007,07,04,03,52,11.10
2007,07,04,03,53,11.10
2007,07,04,03,54,11.10
2007,07,04,03,55,11.10
2007,07,04,03,56,11.10
2007,07,04,03,57,11.10
2007,07,04,03,58,11.10
2007,07,04,03,59,11.10
2007,07,04,04,00,11.10
2007,07,04,04,01,11.10
2007,07,04,04,02,11.10
2007,07,04,04,03,11.10
2007,07,04,04,04,11.10
2007,07,04,04,05,11.10
2007,07,04,04,06,11.10
2007,07,04,04,07,11.10
2007,07,04,04,08,11.10
2007,07,04,04,09,10.90
2007,07,04,04,10,10.90
2007,07,04,04,11,10.90
2007,07,04,04,12,10.90
2007,07,04,04,13,10.90
2007,07,04,04,14,10.90
2007,07,04,04,15,10.90
2007,07,04,04,16,10.90
2007,07,04,04,17,10.90
2007,07,04,04,18,10.90
2007,07,04,04,19,10.90
2007,07,04,04,20,10.90
2007,07,04,04,21,10.90
2007,07,04,04,22,10.90
2007,07,04,04,23,10.90
2007,07,04,04,24,10.90
2007,07,04,04,25,10.90
2007,07,04,04,26,10.90
2007,07,04,04,27,10.90
2007,07,04,04,28,10.90
2007,07,04,04,29,10.90
2007,07,04,04,30,10.90
2007,07,04,04,31,10.90
2007,07,04,04,32,10.90
2007,07,04,04,33,10.80
2007,07,04,04,34,10.80
2007,07,04,04,35,10.80
2007,07,04,04,36,10.80
2007,07,04,04,37,10.80
2007,07,04,04,38,10.80
2007,07,04,04,39,10.80
2007,07,04,04,40,10.80
2007,07,04,04,41,10.80
2007,07,04,04,42,10.80
2007,07,04,04,43,10.80
2007,07,04,04,44,10.80
2007,07,04,04,45,10.80
2007,07,04,04,46,10.80
2007,07,04,04,47,10.80
2007,07,04,04,48,10.80
2007,07,04,04,49,10.80
2007,07,04,04,50,10.70
2007,07,04,04,51,10.70
2007,07,04,04,52,10.70
2007,07,04,04,53,10.70
2007,07,04,04,54,10.70
2007,07,04,04,55,10.70
2007,07,04,04,56,10.70
2007,07,04,04,57,10.70
2007,07,04,04,58,10.70
2007,07,04,04,59,10.70
2007,07,04,05,00,10.60
2007,07,04,05,01,10.60
2007,07,04,05,02,10.60
2007,07,04,05,03,10.60
2007,07,04,05,04,10.60
2007,07,04,05,05,10.60
2007,07,04,05,06,10.60
2007,07,04,05,07,10.60
2007,07,04,05,08,10.60
2007,07,04,05,09,10.60
2007,07,04,05,10,10.60
2007,07,04,05,11,10.60
2007,07,04,05,12,10.60
2007,07,04,05,13,10.60
2007,07,04,05,14,10.60
2007,07,04,05,15,10.60
2007,07,04,05,16,10.60
2007,07,04,05,17,10.60
2007,07,04,05,18,10.60
2007,07,04,05,19,10.60
2007,07,04,05,20,10.60
2007,07,04,05,21,10.60
2007,07,04,05,22,10.60
2007,07,04,05,23,10.60
2007,07,04,05,24,10.60
2007,07,04,05,25,10.60
2007,07,04,05,26,10.60
2007,07,04,05,27,10.60
2007,07,04,05,28,10.60
2007,07,04,05,29,10.60
2007,07,04,05,30,10.40
2007,07,04,05,31,10.40
2007,07,04,05,32,10.40
2007,07,04,05,33,10.40
2007,07,04,05,34,10.40
2007,07,04,05,35,10.40
2007,07,04,05,36,10.40
2007,07,04,05,37,10.40
2007,07,04,05,38,10.40
2007,07,04,05,39,10.40
2007,07,04,05,40,10.40
2007,07,04,05,41,10.40
2007,07,04,05,42,10.40
2007,07,04,05,43,10.40
2007,07,04,05,44,10.40
2007,07,04,05,45,10.40
2007,07,04,05,46,10.40
2007,07,04,05,47,10.40
2007,07,04,05,48,10.40
2007,07,04,05,49,10.40
2007,07,04,05,50,10.40
2007,07,04,05,51,10.40
2007,07,04,05,52,10.40
2007,07,04,05,53,10.40
2007,07,04,05,54,10.40
2007,07,04,05,55,10.40
2007,07,04,05,56,10.40
2007,07,04,05,57,10.40
2007,07,04,05,58,10.40
2007,07,04,05,59,10.40
2007,07,04,06,00,10.40
2007,07,04,06,01,10.40
2007,07,04,06,02,10.40
2007,07,04,06,03,10.40
2007,07,04,06,04,10.40
2007,07,04,06,05,10.40
2007,07,04,06,06,10.40
2007,07,04,06,07,10.40
2007,07,04,06,08,10.40
2007,07,04,06,09,10.40
2007,07,04,06,10,10.40
2007,07,04,06,11,10.40
2007,07,04,06,12,10.40
2007,07,04,06,13,10.60
2007,07,04,06,14,10.60
2007,07,04,06,15,10.60
2007,07,04,06,16,10.60
2007,07,04,06,17,10.60
2007,07,04,06,18,10.60
2007,07,04,06,19,10.60
2007,07,04,06,20,10.60
2007,07,04,06,21,10.60
2007,07,04,06,22,10.60
2007,07,04,06,23,10.70
2007,07,04,06,24,10.70
2007,07,04,06,25,10.70
2007,07,04,06,26,10.70
2007,07,04,06,27,10.70
2007,07,04,06,28,10.80
2007,07,04,06,29,10.80
2007,07,04,06,30,10.80
2007,07,04,06,31,10.90
2007,07,04,06,32,10.90
2007,07,04,06,33,10.90
2007,07,04,06,34,10.90
2007,07,04,06,35,10.90
2007,07,04,06,36,10.90
2007,07,04,06,37,10.90
2007,07,04,06,38,11.10
2007,07,04,06,39,11.10
2007,07,04,06,40,11.10
2007,07,04,06,41,11.10
2007,07,04,06,42,11.10
2007,07,04,06,43,11.20
2007,07,04,06,44,11.20
2007,07,04,06,45,11.30
2007,07,04,06,46,11.30
2007,07,04,06,47,11.30
2007,07,04,06,48,11.40
2007,07,04,06,49,11.40
2007,07,04,06,50,11.40
2007,07,04,06,51,11.40
2007,07,04,06,52,11.60
2007,07,04,06,53,11.60
2007,07,04,06,54,11.60
2007,07,04,06,55,11.60
2007,07,04,06,56,11.70
2007,07,04,06,57,11.70
2007,07,04,06,58,11.80
2007,07,04,06,59,11.80
2007,07,04,07,00,11.80
2007,07,04,07,01,11.80
2007,07,04,07,02,11.80
2007,07,04,07,03,11.90
2007,07,04,07,04,11.90
2007,07,04,07,05,11.90
2007,07,04,07,06,11.90
2007,07,04,07,07,11.90
2007,07,04,07,08,12.00
2007,07,04,07,09,12.00
2007,07,04,07,10,12.00
2007,07,04,07,11,12.00
2007,07,04,07,12,12.00
2007,07,04,07,13,12.00
2007,07,04,07,14,12.10
2007,07,04,07,15,12.10
2007,07,04,07,16,12.10
2007,07,04,07,17,12.10
2007,07,04,07,18,12.20
2007,07,04,07,19,12.20
2007,07,04,07,20,12.20
2007,07,04,07,21,12.20
2007,07,04,07,22,12.30
2007,07,04,07,23,12.30
2007,07,04,07,24,12.30
2007,07,04,07,25,12.30
2007,07,04,07,26,12.30
2007,07,04,07,27,12.30
2007,07,04,07,28,12.30
2007,07,04,07,29,12.30
2007,07,04,07,30,12.30
2007,07,04,07,31,12.30
2007,07,04,07,32,12.30
2007,07,04,07,33,12.30
2007,07,04,07,34,12.30
2007,07,04,07,35,12.30
2007,07,04,07,36,12.30
2007,07,04,07,37,12.30
2007,07,04,07,38,12.30
2007,07,04,07,39,12.30
2007,07,04,07,40,12.30
2007,07,04,07,41,12.30
2007,07,04,07,42,12.30
2007,07,04,07,43,12.30
2007,07,04,07,44,12.30
2007,07,04,07,45,12.30
2007,07,04,07,46,12.30
2007,07,04,07,47,12.30
2007,07,04,07,48,12.30
2007,07,04,07,49,12.30
2007,07,04,07,50,12.30
2007,07,04,07,51,12.30
2007,07,04,07,52,12.30
2007,07,04,07,53,12.30
2007,07,04,07,54,12.30
2007,07,04,07,55,12.30
2007,07,04,07,56,12.30
2007,07,04,07,57,12.30
2007,07,04,07,58,12.30
2007,07,04,07,59,12.30
2007,07,04,08,00,12.30
2007,07,04,08,01,12.30
2007,07,04,08,02,12.40
2007,07,04,08,03,12.40
2007,07,04,08,04,12.40
2007,07,04,08,05,12.50
2007,07,04,08,06,12.50
2007,07,04,08,07,12.50
2007,07,04,08,08,12.50
2007,07,04,08,09,12.60
2007,07,04,08,10,12.60
2007,07,04,08,11,12.60
2007,07,04,08,12,12.70
2007,07,04,08,13,12.80
2007,07,04,08,14,12.80
2007,07,04,08,15,12.80
2007,07,04,08,16,12.80
2007,07,04,08,17,12.80
2007,07,04,08,18,12.80
2007,07,04,08,19,12.80
2007,07,04,08,20,12.90
2007,07,04,08,21,12.90
2007,07,04,08,22,12.90
2007,07,04,08,23,12.90
2007,07,04,08,24,12.90
2007,07,04,08,25,13.00
2007,07,04,08,26,12.90
2007,07,04,08,27,12.90
2007,07,04,08,28,12.90
2007,07,04,08,29,12.90
2007,07,04,08,30,13.00
2007,07,04,08,31,13.00
2007,07,04,08,32,13.10
2007,07,04,08,33,13.10
2007,07,04,08,34,13.10
2007,07,04,08,35,13.10
2007,07,04,08,36,13.10
2007,07,04,08,37,13.10
2007,07,04,08,38,13.20
2007,07,04,08,39,13.20
2007,07,04,08,40,13.20
2007,07,04,08,41,13.20
2007,07,04,08,42,13.20
2007,07,04,08,43,13.10
2007,07,04,08,44,13.10
2007,07,04,08,45,13.10
2007,07,04,08,46,13.10
2007,07,04,08,47,13.20
2007,07,04,08,48,13.20
2007,07,04,08,49,13.20
2007,07,04,08,50,13.20
2007,07,04,08,51,13.30
2007,07,04,08,52,13.30
2007,07,04,08,53,13.30
2007,07,04,08,54,13.40
2007,07,04,08,55,13.40
2007,07,04,08,56,13.50
2007,07,04,08,57,13.50
2007,07,04,08,58,13.50
2007,07,04,08,59,13.50
2007,07,04,09,00,13.60
2007,07,04,09,01,13.70
2007,07,04,09,02,13.70
2007,07,04,09,03,13.70
2007,07,04,09,04,13.80
2007,07,04,09,05,13.90
2007,07,04,09,06,14.00
2007,07,04,09,07,14.10
2007,07,04,09,08,14.20
2007,07,04,09,09,14.20
2007,07,04,09,10,14.30
2007,07,04,09,11,14.40
2007,07,04,09,12,14.50
2007,07,04,09,13,14.60
2007,07,04,09,14,14.60
2007,07,04,09,15,14.70
2007,07,04,09,16,14.70
2007,07,04,09,17,14.70
2007,07,04,09,18,14.80
2007,07,04,09,19,14.80
2007,07,04,09,20,14.80
2007,07,04,09,21,14.80
2007,07,04,09,22,14.80
2007,07,04,09,23,14.80
2007,07,04,09,24,14.80
2007,07,04,09,25,14.90
2007,07,04,09,26,14.90
2007,07,04,09,27,15.00
2007,07,04,09,28,15.00
2007,07,04,09,29,15.00
2007,07,04,09,30,15.10
2007,07,04,09,31,15.20
2007,07,04,09,32,15.30
2007,07,04,09,33,15.30
2007,07,04,09,34,15.30
2007,07,04,09,35,15.30
2007,07,04,09,36,15.30
2007,07,04,09,37,15.40
2007,07,04,09,38,15.40
2007,07,04,09,39,15.50
2007,07,04,09,40,15.50
2007,07,04,09,41,15.60
2007,07,04,09,42,15.60
2007,07,04,09,43,15.70
2007,07,04,09,44,15.80
2007,07,04,09,45,15.80
2007,07,04,09,46,15.80
2007,07,04,09,47,15.80
2007,07,04,09,48,15.90
2007,07,04,09,49,15.90
2007,07,04,09,50,16.10
2007,07,04,09,51,16.10
2007,07,04,09,52,16.10
2007,07,04,09,53,16.10
2007,07,04,09,54,16.20
2007,07,04,09,55,16.30
2007,07,04,09,56,16.30
2007,07,04,09,57,16.40
2007,07,04,09,58,16.40
2007,07,04,09,59,16.40
2007,07,04,10,00,16.60
2007,07,04,10,01,16.70
2007,07,04,10,02,16.70
2007,07,04,10,03,16.80
2007,07,04,10,04,16.90
2007,07,04,10,05,16.90
2007,07,04,10,06,17.00
2007,07,04,10,07,17.00
2007,07,04,10,08,17.10
2007,07,04,10,09,17.20
2007,07,04,10,10,17.30
2007,07,04,10,11,17.30
2007,07,04,10,12,17.50
2007,07,04,10,13,17.60
2007,07,04,10,14,17.80
2007,07,04,10,15,17.90
2007,07,04,10,16,17.90
2007,07,04,10,17,18.10
2007,07,04,10,18,18.20
2007,07,04,10,19,18.20
2007,07,04,10,20,18.20
2007,07,04,10,21,18.30
2007,07,04,10,22,18.40
2007,07,04,10,23,18.50
2007,07,04,10,24,18.60
2007,07,04,10,25,18.60
2007,07,04,10,26,18.60
2007,07,04,10,27,18.60
2007,07,04,10,28,18.70
2007,07,04,10,29,18.70
2007,07,04,10,30,18.70
2007,07,04,10,31,18.70
2007,07,04,10,32,18.60
2007,07,04,10,33,18.70
2007,07,04,10,34,18.70
2007,07,04,10,35,18.80
2007,07,04,10,36,18.90
2007,07,04,10,37,18.90
2007,07,04,10,38,18.90
2007,07,04,10,39,18.90
2007,07,04,10,40,18.90
2007,07,04,10,41,18.90
2007,07,04,10,42,19.10
2007,07,04,10,43,19.10
2007,07,04,10,44,19.10
2007,07,04,10,45,19.10
2007,07,04,10,46,19.20
2007,07,04,10,47,19.20
2007,07,04,10,48,19.20
2007,07,04,10,49,19.20
2007,07,04,10,50,19.20
2007,07,04,10,51,19.20
2007,07,04,10,52,19.20
2007,07,04,10,53,19.20
2007,07,04,10,54,19.30
2007,07,04,10,55,19.30
2007,07,04,10,56,19.40
2007,07,04,10,57,19.40
2007,07,04,10,58,19.40
2007,07,04,10,59,19.50
2007,07,04,11,00,19.50
2007,07,04,11,01,19.60
2007,07,04,11,02,19.60
2007,07,04,11,03,19.70
2007,07,04,11,04,19.80
2007,07,04,11,05,19.80
2007,07,04,11,06,19.90
2007,07,04,11,07,19.90
2007,07,04,11,08,20.10
2007,07,04,11,09,20.10
2007,07,04,11,10,20.20
2007,07,04,11,11,20.20
2007,07,04,11,12,20.30
2007,07,04,11,13,20.40
2007,07,04,11,14,20.50
2007,07,04,11,15,20.70
2007,07,04,11,16,20.80
2007,07,04,11,17,20.90
2007,07,04,11,18,21.00
2007,07,04,11,19,21.00
2007,07,04,11,20,21.10
2007,07,04,11,21,21.10
2007,07,04,11,22,21.20
2007,07,04,11,23,21.30
2007,07,04,11,24,21.30
2007,07,04,11,25,21.30
2007,07,04,11,26,21.40
2007,07,04,11,27,21.60
2007,07,04,11,28,21.70
2007,07,04,11,29,21.80
2007,07,04,11,30,21.90
2007,07,04,11,31,22.00
2007,07,04,11,32,22.00
2007,07,04,11,33,22.10
2007,07,04,11,34,22.10
2007,07,04,11,35,22.20
2007,07,04,11,36,22.20
2007,07,04,11,37,22.30
2007,07,04,11,38,22.30
2007,07,04,11,39,22.40
2007,07,04,11,40,22.40
2007,07,04,11,41,22.40
2007,07,04,11,42,22.40
2007,07,04,11,43,22.40
2007,07,04,11,44,22.40
2007,07,04,11,45,22.50
2007,07,04,11,46,22.50
2007,07,04,11,47,22.60
2007,07,04,11,48,22.70
2007,07,04,11,49,22.70
2007,07,04,11,50,22.80
2007,07,04,11,51,22.80
2007,07,04,11,52,22.80
2007,07,04,11,53,22.80
2007,07,04,11,54,22.60
2007,07,04,11,55,22.50
2007,07,04,11,56,22.40
2007,07,04,11,57,22.40
2007,07,04,11,58,22.40
2007,07,04,11,59,22.50
2007,07,04,12,00,22.50
2007,07,04,12,01,22.50
2007,07,04,12,02,22.60
2007,07,04,12,03,22.60
2007,07,04,12,04,22.70
2007,07,04,12,05,22.70
2007,07,04,12,06,22.80
2007,07,04,12,07,22.90
2007,07,04,12,08,22.90
2007,07,04,12,09,22.90
2007,07,04,12,10,23.10
2007,07,04,12,11,23.20
2007,07,04,12,12,23.30
2007,07,04,12,13,23.30
2007,07,04,12,14,23.40
2007,07,04,12,15,23.60
2007,07,04,12,16,23.70
2007,07,04,12,17,23.80
2007,07,04,12,18,23.90
2007,07,04,12,19,23.90
2007,07,04,12,20,23.90
2007,07,04,12,21,24.10
2007,07,04,12,22,24.10
2007,07,04,12,23,24.20
2007,07,04,12,24,24.20
2007,07,04,12,25,24.30
2007,07,04,12,26,24.30
2007,07,04,12,27,24.40
2007,07,04,12,28,24.40
2007,07,04,12,29,24.50
2007,07,04,12,30,24.60
2007,07,04,12,31,24.70
2007,07,04,12,32,24.80
2007,07,04,12,33,24.90
2007,07,04,12,34,24.90
2007,07,04,12,35,24.80
2007,07,04,12,36,24.80
2007,07,04,12,37,24.60
2007,07,04,12,38,24.50
2007,07,04,12,39,24.50
2007,07,04,12,40,24.40
2007,07,04,12,41,24.40
2007,07,04,12,42,24.40
2007,07,04,12,43,24.40
2007,07,04,12,44,24.40
2007,07,04,12,45,24.40
2007,07,04,12,46,24.40
2007,07,04,12,47,24.40
2007,07,04,12,48,24.40
2007,07,04,12,49,24.40
2007,07,04,12,50,24.40
2007,07,04,12,51,24.40
2007,07,04,12,52,24.40
2007,07,04,12,53,24.50
2007,07,04,12,54,24.60
2007,07,04,12,55,24.70
2007,07,04,12,56,24.80
2007,07,04,12,57,24.90
2007,07,04,12,58,25.00
2007,07,04,12,59,25.20
2007,07,04,13,00,25.30
2007,07,04,13,01,25.40
2007,07,04,13,02,25.40
2007,07,04,13,03,25.40
2007,07,04,13,04,25.40
2007,07,04,13,05,25.40
2007,07,04,13,06,25.40
2007,07,04,13,07,25.50
2007,07,04,13,08,25.60
2007,07,04,13,09,25.70
2007,07,04,13,10,25.70
2007,07,04,13,11,25.70
2007,07,04,13,12,25.70
2007,07,04,13,13,25.70
2007,07,04,13,14,25.60
2007,07,04,13,15,25.40
2007,07,04,13,16,25.30
2007,07,04,13,17,25.10
2007,07,04,13,18,25.10
2007,07,04,13,19,25.10
2007,07,04,13,20,25.10
2007,07,04,13,21,25.20
2007,07,04,13,22,25.30
2007,07,04,13,23,25.40
2007,07,04,13,24,25.60
2007,07,04,13,25,25.70
2007,07,04,13,26,25.80
2007,07,04,13,27,25.90
2007,07,04,13,28,26.00
2007,07,04,13,29,26.00
2007,07,04,13,30,25.90
2007,07,04,13,31,25.90
2007,07,04,13,32,26.00
2007,07,04,13,33,26.00
2007,07,04,13,34,26.10
2007,07,04,13,35,26.10
2007,07,04,13,36,26.10
2007,07,04,13,37,26.20
2007,07,04,13,38,26.20
2007,07,04,13,39,26.30
2007,07,04,13,40,26.30
2007,07,04,13,41,26.40
2007,07,04,13,42,26.60
2007,07,04,13,43,26.70
2007,07,04,13,44,26.70
2007,07,04,13,45,26.80
2007,07,04,13,46,26.80
2007,07,04,13,47,26.90
2007,07,04,13,48,27.10
2007,07,04,13,49,27.20
2007,07,04,13,50,27.10
2007,07,04,13,51,27.20
2007,07,04,13,52,27.20
2007,07,04,13,53,27.30
2007,07,04,13,54,27.30
2007,07,04,13,55,27.30
2007,07,04,13,56,27.30
2007,07,04,13,57,27.40
2007,07,04,13,58,27.40
2007,07,04,13,59,27.60
2007,07,04,14,00,27.70
2007,07,04,14,01,27.60
2007,07,04,14,02,27.60
2007,07,04,14,03,27.60
2007,07,04,14,04,27.60
2007,07,04,14,05,27.70
2007,07,04,14,06,27.70
2007,07,04,14,07,27.80
2007,07,04,14,08,27.90
2007,07,04,14,09,27.90
2007,07,04,14,10,28.00
2007,07,04,14,11,28.10
2007,07,04,14,12,28.20
2007,07,04,14,13,28.30
2007,07,04,14,14,28.30
2007,07,04,14,15,28.30
2007,07,04,14,16,28.20
2007,07,04,14,17,28.20
2007,07,04,14,18,28.20
2007,07,04,14,19,28.30
2007,07,04,14,20,28.30
2007,07,04,14,21,28.20
2007,07,04,14,22,28.10
2007,07,04,14,23,28.10
2007,07,04,14,24,28.00
2007,07,04,14,25,28.00
2007,07,04,14,26,28.10
2007,07,04,14,27,28.00
2007,07,04,14,28,28.00
2007,07,04,14,29,27.90
2007,07,04,14,30,27.90
2007,07,04,14,31,27.90
2007,07,04,14,32,28.00
2007,07,04,14,33,28.00
2007,07,04,14,34,28.10
2007,07,04,14,35,28.10
2007,07,04,14,36,28.10
2007,07,04,14,37,28.20
2007,07,04,14,38,28.30
2007,07,04,14,39,28.30
2007,07,04,14,40,28.40
2007,07,04,14,41,28.40
2007,07,04,14,42,28.60
2007,07,04,14,43,28.70
2007,07,04,14,44,28.80
2007,07,04,14,45,28.90
2007,07,04,14,46,28.80
2007,07,04,14,47,28.90
2007,07,04,14,48,28.90
2007,07,04,14,49,28.90
2007,07,04,14,50,28.90
2007,07,04,14,51,29.10
2007,07,04,14,52,29.10
2007,07,04,14,53,29.20
2007,07,04,14,54,29.30
2007,07,04,14,55,29.30
2007,07,04,14,56,29.30
2007,07,04,14,57,29.40
2007,07,04,14,58,29.40
2007,07,04,14,59,29.30
2007,07,04,15,00,29.10
2007,07,04,15,01,28.70
2007,07,04,15,02,28.60
2007,07,04,15,03,28.60
2007,07,04,15,04,28.60
2007,07,04,15,05,28.60
2007,07,04,15,07,28.80
2007,07,04,15,08,28.90
2007,07,04,15,09,29.10
2007,07,04,15,10,29.20
2007,07,04,15,11,29.30
2007,07,04,15,12,29.40
2007,07,04,15,13,29.50
2007,07,04,15,14,29.60
2007,07,04,15,15,29.60
2007,07,04,15,16,29.70
2007,07,04,15,17,29.70
2007,07,04,15,18,29.70
2007,07,04,15,19,29.80
2007,07,04,15,20,29.80
2007,07,04,15,21,29.80
2007,07,04,15,22,29.80
2007,07,04,15,23,29.80
2007,07,04,15,24,29.90
2007,07,04,15,25,29.90
2007,07,04,15,26,30.10
2007,07,04,15,27,30.10
2007,07,04,15,28,30.20
2007,07,04,15,29,30.20
2007,07,04,15,30,30.30
2007,07,04,15,31,30.30
2007,07,04,15,32,30.20
2007,07,04,15,33,30.20
2007,07,04,15,34,30.20
2007,07,04,15,35,30.10
2007,07,04,15,36,30.10
2007,07,04,15,37,30.10
2007,07,04,15,38,30.10
2007,07,04,15,39,30.10
2007,07,04,15,40,30.10
2007,07,04,15,41,29.90
2007,07,04,15,42,30.10
2007,07,04,15,43,30.10
2007,07,04,15,44,29.90
2007,07,04,15,45,29.90
2007,07,04,15,46,29.80
2007,07,04,15,47,29.80
2007,07,04,15,48,29.70
2007,07,04,15,49,29.80
2007,07,04,15,50,29.80
2007,07,04,15,51,29.80
2007,07,04,15,52,29.90
2007,07,04,15,53,30.10
2007,07,04,15,54,30.20
2007,07,04,15,55,30.20
2007,07,04,15,56,30.20
2007,07,04,15,57,30.30
2007,07,04,15,58,30.30
2007,07,04,15,59,30.30
2007,07,04,16,00,30.40
2007,07,04,16,01,30.40
2007,07,04,16,02,30.40
2007,07,04,16,03,30.40
2007,07,04,16,04,30.40
2007,07,04,16,05,30.60
2007,07,04,16,06,30.70
2007,07,04,16,07,30.70
2007,07,04,16,08,30.80
2007,07,04,16,09,30.80
2007,07,04,16,10,30.80
2007,07,04,16,11,30.90
2007,07,04,16,12,30.90
2007,07,04,16,13,30.90
2007,07,04,16,14,30.90
2007,07,04,16,15,30.90
2007,07,04,16,16,30.80
2007,07,04,16,17,30.80
2007,07,04,16,18,30.70
2007,07,04,16,19,30.70
2007,07,04,16,20,30.70
2007,07,04,16,21,30.70
2007,07,04,16,22,30.70
2007,07,04,16,23,30.70
2007,07,04,16,24,30.70
2007,07,04,16,25,30.70
2007,07,04,16,26,30.80
2007,07,04,16,27,30.80
2007,07,04,16,28,30.80
2007,07,04,16,29,30.80
2007,07,04,16,30,30.80
2007,07,04,16,31,30.80
2007,07,04,16,32,30.80
2007,07,04,16,33,30.90
2007,07,04,16,34,30.90
2007,07,04,16,35,31.00
2007,07,04,16,36,31.00
2007,07,04,16,37,31.00
2007,07,04,16,38,31.00
2007,07,04,16,39,31.10
2007,07,04,16,40,31.10
2007,07,04,16,41,31.10
2007,07,04,16,42,31.00
2007,07,04,16,43,31.00
2007,07,04,16,44,31.00
2007,07,04,16,45,31.00
2007,07,04,16,46,31.00
2007,07,04,16,47,31.10
2007,07,04,16,48,31.10
2007,07,04,16,49,31.10
2007,07,04,16,50,31.20
2007,07,04,16,51,31.20
2007,07,04,16,52,31.20
2007,07,04,16,53,31.20
2007,07,04,16,54,31.30
2007,07,04,16,55,31.30
2007,07,04,16,56,31.30
2007,07,04,16,57,31.30
2007,07,04,16,58,31.30
2007,07,04,16,59,31.20
2007,07,04,17,00,31.10
2007,07,04,17,01,31.10
2007,07,04,17,02,31.00
2007,07,04,17,03,31.00
2007,07,04,17,04,31.00
2007,07,04,17,05,31.00
2007,07,04,17,06,31.10
2007,07,04,17,07,31.10
2007,07,04,17,08,31.10
2007,07,04,17,09,31.10
2007,07,04,17,10,31.10
2007,07,04,17,11,31.10
2007,07,04,17,12,31.10
2007,07,04,17,13,31.20
2007,07,04,17,14,31.10
2007,07,04,17,15,31.10
2007,07,04,17,16,31.10
2007,07,04,17,17,31.10
2007,07,04,17,18,31.00
2007,07,04,17,19,31.00
2007,07,04,17,20,30.90
2007,07,04,17,21,30.80
2007,07,04,17,22,30.80